CW0506 Weather Reports


time (UTC)temp
C
wind
direction
speed
KPH
gust
KPH
rain 1hr
cm
rain 24hr
cm
rain mn
cm
humidity
%
barometer
mb
20260506193653 15 271 3.2 6.4 0.00 0.15 0.15 99 1008.1
20260506193149 15 253 3.2 3.2 0.00 0.15 0.15 99 1008.2
20260506192646 15 274 0.0 8.0 0.00 0.15 0.15 99 1008.3
20260506192142 15 279 8.0 9.7 0.00 0.15 0.15 99 1008.2
20260506191639 15 240 3.2 8.0 0.00 0.15 0.15 99 1008.2
20260506191135 15 315 3.2 11.3 0.05 0.15 0.15 98 1008.6
20260506190633 15 249 3.2 11.3 0.05 0.15 0.15 98 1008.5
20260506190130 15 262 4.8 11.3 0.00 0.15 0.15 98 1008.5
20260506185627 15 251 6.4 19.3 0.00 0.15 0.15 98 1008.6
20260506185123 15 175 0.0 6.4 0.00 0.15 0.15 98 1008.6
20260506184620 15 289 4.8 14.5 0.00 0.15 0.15 98 1008.7
20260506184117 15 264 6.4 20.9 0.00 0.15 0.15 98 1008.6
20260506183614 15 265 4.8 14.5 0.00 0.15 0.15 98 1008.8
20260506183110 15 278 6.4 16.1 0.05 0.15 0.15 98 1009.0
20260506182608 15 266 8.0 17.7 0.05 0.15 0.15 98 1008.9
20260506182105 15 76 3.2 6.4 0.05 0.15 0.15 98 1008.9
20260506181603 15 238 4.8 6.4 0.05 0.15 0.15 98 1009.0
20260506181059 15 340 8.0 14.5 0.00 0.13 0.13 97 1008.9
20260506180556 15 296 6.4 17.7 0.05 0.13 0.13 97 1008.7
20260506180053 15 285 9.7 16.1 0.05 0.13 0.13 97 1008.6
20260506175549 15 59 0.0 11.3 0.05 0.13 0.13 97 1008.8
20260506175045 15 269 3.2 11.3 0.13 0.13 0.13 97 1009.0
20260506174544 15 275 1.6 9.7 0.05 0.10 0.10 97 1008.6
20260506174039 16 324 4.8 8.0 0.13 0.10 0.10 96 1008.8
20260506173538 16 312 6.4 16.1 0.18 0.10 0.10 95 1008.9
20260506173034 16 287 3.2 17.7 0.18 0.08 0.08 95 1009.1
20260506172532 16 187 0.0 12.9 0.18 0.05 0.05 94 1009.2
20260506172028 16 275 3.2 12.9 0.18 0.05 0.05 93 1009.4
20260506171525 16 284 1.6 8.0 0.13 0.03 0.03 92 1009.5
20260506171023 16 300 6.4 14.5 0.13 0.03 0.03 90 1009.7
20260506170520 17 286 4.8 9.7 0.05 0.00 0.00 89 1009.8
20260506170012 17 226 9.7 12.9 0.00 0.00 0.00 86 1010.0
20260506165510 17 298 6.4 12.9 0.00 0.00 0.00 84 1009.9
20260506165006 18 315 1.6 16.1 0.00 0.00 0.00 84 1009.8
20260506164503 18 265 4.8 14.5 0.00 0.00 0.00 83 1009.6
20260506164000 18 285 6.4 11.3 0.00 0.00 0.00 82 1010.0
20260506163454 18 265 6.4 14.5 0.00 0.00 0.00 81 1009.9
20260506162949 18 320 4.8 14.5 0.00 0.00 0.00 81 1009.8
20260506162447 19 299 8.0 20.9 0.00 0.00 0.00 78 1009.7
20260506161939 19 287 3.2 12.9 0.00 0.00 0.00 79 1009.8
20260506161437 20 307 9.7 20.9 0.00 0.00 0.00 77 1009.5
20260506160929 19 197 0.0 17.7 0.00 0.00 0.00 77 1009.7
20260506160426 20 257 16.1 20.9 0.00 0.00 0.00 76 1009.8
20260506155923 20 280 9.7 22.5 0.00 0.00 0.00 75 1009.9
20260506155420 20 295 4.8 22.5 0.00 0.00 0.00 75 1009.9
20260506153542 20 317 17.7 17.7 0.00 0.00 0.00 75 1010.3
20260506153040 20 289 14.5 17.7 0.00 0.00 0.00 75 1010.1
20260506152537 20 263 9.7 19.3 0.00 0.00 0.00 75 1010.2
20260506152035 20 339 4.8 17.7 0.00 0.00 0.00 75 1010.2
20260506151532 20 295 11.3 14.5 0.00 0.00 0.00 76 1010.3
20260506151024 19 282 9.7 16.1 0.00 0.00 0.00 76 1010.0
20260506150520 20 299 12.9 16.1 0.00 0.00 0.00 75 1010.5
20260506150017 20 310 4.8 20.9 0.00 0.00 0.00 75 1010.3
20260506145514 20 268 3.2 14.5 0.00 0.00 0.00 75 1010.1
20260506145011 19 303 1.6 14.5 0.00 0.00 0.00 77 1010.3
20260506144508 19 84 1.6 19.3 0.00 0.00 0.00 77 1010.2
20260506144005 19 255 6.4 14.5 0.00 0.00 0.00 77 1010.3
20260506143503 19 264 8.0 17.7 0.00 0.00 0.00 77 1010.5
20260506143001 19 282 8.0 20.9 0.00 0.00 0.00 77 1010.6
20260506142458 19 285 1.6 14.5 0.00 0.00 0.00 77 1010.5
20260506141956 19 305 3.2 6.4 0.00 0.00 0.00 79 1010.5
20260506141454 19 228 3.2 14.5 0.00 0.00 0.00 77 1010.5
20260506140952 20 302 1.6 6.4 0.00 0.00 0.00 76 1010.3
20260506140449 18 11 1.6 14.5 0.00 0.00 0.00 79 1010.2
20260506135945 18 263 3.2 9.7 0.00 0.00 0.00 80 1010.3
20260506135443 17 2 1.6 16.1 0.00 0.00 0.00 83 1010.5
20260506134938 18 353 3.2 14.5 0.00 0.00 0.00 83 1010.6
20260506134435 17 255 6.4 11.3 0.00 0.00 0.00 83 1010.5
20260506133932 17 254 3.2 12.9 0.00 0.00 0.00 84 1010.3
20260506133429 17 177 0.0 4.8 0.00 0.00 0.00 85 1010.4
20260506132926 17 294 6.4 16.1 0.00 0.00 0.00 84 1010.4
20260506132423 17 315 3.2 9.7 0.00 0.00 0.00 85 1010.3
20260506131920 17 249 3.2 8.0 0.00 0.00 0.00 85 1010.4
20260506131416 17 346 0.0 9.7 0.00 0.00 0.00 86 1010.5
20260506130914 16 198 3.2 9.7 0.00 0.00 0.00 86 1010.4
20260506130410 16 231 1.6 4.8 0.00 0.00 0.00 87 1010.5
20260506125908 16 224 1.6 8.0 0.00 0.00 0.00 88 1010.8
20260506125406 16 303 1.6 6.4 0.00 0.00 0.00 88 1010.7
20260506124904 16 283 6.4 11.3 0.00 0.00 0.00 88 1010.6
20260506124401 16 312 9.7 14.5 0.00 0.00 0.00 88 1010.8
20260506123859 16 273 4.8 8.0 0.00 0.00 0.00 88 1011.0
20260506123357 16 257 4.8 8.0 0.00 0.00 0.00 88 1011.2
20260506122854 16 295 6.4 14.5 0.00 0.00 0.00 88 1011.3
20260506122350 16 35 4.8 8.0 0.00 0.00 0.00 89 1011.2
20260506121849 16 37 4.8 12.9 0.00 0.00 0.00 89 1011.2
20260506121346 15 273 8.0 11.3 0.00 0.00 0.00 89 1011.0
20260506120843 16 352 16.1 24.1 0.00 0.00 0.00 89 1011.2
20260506120340 15 296 3.2 9.7 0.00 0.00 0.00 90 1011.3
20260506115837 15 298 3.2 6.4 0.00 0.00 0.00 91 1011.0
20260506115336 15 172 1.6 8.0 0.00 0.00 0.00 91 1011.2
20260506114834 15 105 1.6 9.7 0.00 0.00 0.00 90 1011.0
20260506114331 15 265 1.6 14.5 0.00 0.00 0.00 91 1011.0
20260506113830 15 243 3.2 8.0 0.00 0.00 0.00 92 1011.0
20260506113326 15 237 1.6 12.9 0.00 0.00 0.00 92 1011.3
20260506112823 14 312 0.0 1.6 0.00 0.00 0.00 93 1011.3
20260506112320 14 29 0.0 4.8 0.00 0.00 0.00 93 1011.0
20260506111818 14 156 0.0 3.2 0.00 0.00 0.00 94 1011.2
20260506111316 13 85 3.2 4.8 0.00 0.00 0.00 95 1011.0
20260506110813 13 98 3.2 8.0 0.00 0.00 0.00 97 1011.2
20260506110310 13 238 3.2 3.2 0.00 0.00 0.00 97 1011.4
20260506105806 13 51 4.8 6.4 0.00 0.00 0.00 98 1011.2
20260506105305 12 214 0.0 3.2 0.00 0.00 0.00 98 1011.2
20260506104801 12 113 0.0 3.2 0.00 0.00 0.00 98 1011.4
20260506104258 12 150 0.0 3.2 0.00 0.00 0.00 98 1011.2
20260506103756 12 125 0.0 3.2 0.00 0.00 0.00 98 1011.0
20260506103253 12 146 3.2 4.8 0.00 0.00 0.00 98 1011.3
20260506102750 12 341 1.6 3.2 0.00 0.00 0.00 98 1011.4
20260506102248 12 155 0.0 3.2 0.00 0.00 0.00 98 1011.3
20260506101745 12 137 0.0 1.6 0.00 0.00 0.00 98 1011.4
20260506101241 12 132 0.0 3.2 0.00 0.00 0.00 98 1011.0
20260506100740 12 105 0.0 3.2 0.00 0.00 0.00 98 1011.0
20260506100237 12 73 0.0 3.2 0.00 0.00 0.00 97 1010.9
20260506095736 12 111 1.6 4.8 0.00 0.00 0.00 97 1011.0
20260506095232 12 150 3.2 3.2 0.00 0.00 0.00 97 1011.2
20260506094729 12 185 1.6 4.8 0.00 0.00 0.00 97 1011.2
20260506094227 12 146 4.8 4.8 0.00 0.00 0.00 97 1010.8
20260506093726 12 144 0.0 1.6 0.00 0.00 0.00 97 1011.0
20260506093222 12 138 3.2 3.2 0.00 0.00 0.00 96 1010.9
20260506092720 12 101 0.0 4.8 0.00 0.00 0.00 96 1011.0
20260506092218 12 154 3.2 4.8 0.00 0.00 0.00 96 1010.8
20260506091715 12 115 1.6 3.2 0.00 0.00 0.00 96 1010.8
20260506091212 12 145 1.6 3.2 0.00 0.00 0.00 96 1010.9
20260506090710 12 194 1.6 4.8 0.00 0.00 0.00 95 1010.9
20260506090206 12 149 0.0 4.8 0.00 0.00 0.00 95 1010.9
20260506085704 12 125 0.0 4.8 0.00 0.00 0.00 95 1011.2
20260506085159 12 163 0.0 4.8 0.00 0.00 0.00 95 1010.9
20260506084656 13 121 0.0 4.8 0.00 0.00 0.00 95 1011.0
20260506084153 13 132 3.2 4.8 0.00 0.00 0.00 94 1010.8
20260506083650 13 137 0.0 3.2 0.00 0.00 0.00 94 1010.8
20260506083148 13 161 1.6 6.4 0.00 0.00 0.00 94 1011.0
20260506082644 13 117 0.0 3.2 0.00 0.00 0.00 93 1010.9
20260506082139 13 113 0.0 4.8 0.00 0.00 0.00 93 1011.2
20260506081638 13 148 1.6 3.2 0.00 0.00 0.00 93 1011.3
20260506081135 13 158 1.6 8.0 0.00 0.00 0.00 93 1010.9
20260506080632 13 100 0.0 8.0 0.00 0.00 0.00 93 1011.0
20260506080129 13 189 1.6 3.2 0.00 0.00 0.00 93 1010.9
20260506073113 13 133 3.2 3.2 0.00 0.00 0.00 92 1011.2
20260506072609 13 116 3.2 4.8 0.00 0.00 0.00 91 1010.9
20260506072108 13 166 0.0 3.2 0.00 0.00 0.00 90 1011.0
20260506071605 13 152 3.2 4.8 0.00 0.00 0.00 90 1011.0
20260506071102 13 106 1.6 4.8 0.00 0.00 0.00 90 1011.2
20260506070559 13 146 3.2 3.2 0.00 0.00 0.00 89 1011.0
20260506062033 16 140 1.6 3.2 0.00 0.00 0.00 81 1010.8
20260506061529 16 309 1.6 9.7 0.00 0.00 0.00 80 1010.9
20260506061027 16 318 4.8 8.0 0.00 0.00 0.00 79 1010.8
20260506060526 16 30 0.0 4.8 0.00 0.00 0.00 80 1010.8
20260506050954 17 280 0.0 3.2 0.00 0.00 0.00 74 1011.2
20260506050452 17 252 3.2 14.5 0.00 0.00 0.00 74 1011.2
20260506044942 17 258 0.0 4.8 0.00 0.00 0.00 75 1011.0
20260506044441 17 225 3.2 6.4 0.00 0.00 0.00 75 1011.2
20260506043937 17 264 3.2 9.7 0.00 0.00 0.00 74 1011.2
20260506043434 17 236 12.9 14.5 0.00 0.00 0.00 74 1011.4
20260506042932 17 230 4.8 11.3 0.00 0.00 0.00 74 1010.9
20260506042431 16 150 0.0 3.2 0.00 0.00 0.00 77 1011.3
20260506041929 16 263 6.4 9.7 0.00 0.00 0.00 78 1011.2
20260506041427 16 118 0.0 3.2 0.00 0.00 0.00 78 1011.5
20260506040924 16 175 0.0 3.2 0.00 0.00 0.00 78 1011.3
20260506040421 16 91 0.0 4.8 0.00 0.00 0.00 77 1011.2
20260506035917 16 64 1.6 4.8 0.00 0.00 0.00 77 1011.3
20260506035415 16 122 0.0 3.2 0.00 0.00 0.00 77 1011.2
20260506034911 17 284 3.2 9.7 0.00 0.00 0.00 74 1011.3
20260506034408 16 274 4.8 4.8 0.00 0.00 0.00 76 1011.3
20260506033905 17 226 3.2 6.4 0.00 0.00 0.00 76 1011.4
20260506033403 17 162 0.0 4.8 0.00 0.00 0.00 74 1011.4
20260506032859 17 321 3.2 4.8 0.00 0.00 0.00 75 1011.4
20260506032356 16 150 0.0 6.4 0.00 0.00 0.00 75 1011.2
20260506031853 16 79 0.0 1.6 0.00 0.00 0.00 75 1011.2
20260506031350 17 254 3.2 9.7 0.00 0.00 0.00 75 1011.4
20260506030848 17 251 1.6 8.0 0.00 0.00 0.00 74 1011.3
20260506030346 17 248 1.6 6.4 0.00 0.00 0.00 73 1011.5
20260506025842 17 230 6.4 14.5 0.00 0.00 0.00 73 1011.3
20260506025339 17 307 1.6 6.4 0.00 0.00 0.00 73 1011.3
20260506024836 17 317 0.0 8.0 0.00 0.00 0.00 72 1011.2
20260506024333 17 358 0.0 8.0 0.00 0.00 0.00 73 1011.0
20260506023829 17 213 6.4 11.3 0.00 0.00 0.00 73 1011.3
20260506023326 17 178 0.0 3.2 0.00 0.00 0.00 74 1010.8
20260506022822 17 262 0.0 4.8 0.00 0.00 0.00 72 1011.0
20260506022320 16 221 0.0 6.4 0.00 0.00 0.00 74 1011.2
20260506021819 17 137 0.0 1.6 0.00 0.00 0.00 73 1011.0
20260506021315 17 295 0.0 3.2 0.00 0.00 0.00 73 1011.2
20260506020811 17 162 0.0 1.6 0.00 0.00 0.00 74 1011.0
20260506020309 17 133 1.6 4.8 0.00 0.00 0.00 74 1010.9
20260506015807 17 83 0.0 4.8 0.00 0.00 0.00 73 1011.2
20260506015306 17 151 1.6 4.8 0.00 0.00 0.00 73 1011.2
20260506014801 17 137 0.0 4.8 0.00 0.00 0.00 72 1010.9
20260506014258 17 166 1.6 3.2 0.00 0.00 0.00 70 1010.9
20260506013754 18 36 0.0 3.2 0.00 0.00 0.00 68 1010.8
20260506013252 18 304 9.7 12.9 0.00 0.00 0.00 68 1010.8
20260506012748 18 251 3.2 8.0 0.00 0.00 0.00 69 1010.5
20260506012245 18 285 3.2 9.7 0.00 0.00 0.00 67 1010.8
20260506011742 18 293 4.8 8.0 0.00 0.00 0.00 68 1010.7
20260506011239 18 30 3.2 6.4 0.00 0.00 0.00 67 1010.6
20260506010737 18 20 3.2 4.8 0.00 0.00 0.00 68 1010.5
20260506010234 18 246 1.6 8.0 0.00 0.00 0.00 66 1010.5
20260506005731 19 280 8.0 14.5 0.00 0.00 0.00 65 1010.5
20260506005228 18 292 4.8 8.0 0.00 0.00 0.00 66 1010.3
20260506004724 18 238 1.6 8.0 0.00 0.00 0.00 66 1010.3
20260506004222 19 347 3.2 6.4 0.00 0.00 0.00 66 1010.4
20260506003717 19 257 6.4 14.5 0.00 0.00 0.00 65 1010.1
20260506003214 19 256 4.8 12.9 0.00 0.00 0.00 65 1010.1
20260506002710 20 270 3.2 9.7 0.00 0.00 0.00 64 1010.3
20260506002206 20 322 3.2 9.7 0.00 0.00 0.00 65 1010.0
20260506001702 20 196 1.6 9.7 0.00 0.00 0.00 64 1009.9
20260506001200 20 245 3.2 4.8 0.00 0.00 0.00 64 1009.8
20260506000656 20 274 6.4 14.5 0.00 0.00 0.00 63 1009.6
20260506000154 20 296 6.4 14.5 0.00 0.00 0.00 62 1009.4
20260505235652 20 262 3.2 12.9 0.00 0.00 0.00 62 1009.5
20260505235149 20 282 6.4 16.1 0.00 0.00 0.00 62 1009.5
20260505234646 20 296 4.8 14.5 0.00 0.00 0.00 62 1009.5
20260505234142 20 239 6.4 17.7 0.00 0.00 0.00 62 1009.2
20260505233639 20 294 9.7 12.9 0.00 0.00 0.00 61 1009.4
20260505233137 21 312 9.7 12.9 0.00 0.00 0.00 61 1009.2
20260505232635 21 283 9.7 20.9 0.00 0.00 0.00 60 1009.2
20260505232132 21 273 3.2 9.7 0.00 0.00 0.00 60 1009.1
20260505231629 21 301 3.2 9.7 0.00 0.00 0.00 60 1008.9
20260505231127 21 255 3.2 11.3 0.00 0.00 0.00 60 1009.2
20260505230625 21 40 3.2 9.7 0.00 0.00 0.00 60 1009.0
20260505230121 21 18 6.4 11.3 0.00 0.00 0.00 59 1008.9
20260505225618 21 295 4.8 19.3 0.00 0.00 0.00 59 1008.9
20260505225114 22 324 8.0 19.3 0.00 0.00 0.00 59 1008.7
20260505224611 22 130 4.8 25.7 0.00 0.00 0.00 60 1008.6
20260505224108 22 258 14.5 20.9 0.00 0.00 0.00 59 1008.6
20260505223605 22 273 0.0 25.7 0.00 0.00 0.00 59 1008.5
20260505223101 22 283 8.0 27.4 0.00 0.00 0.00 58 1008.5
20260505222558 22 268 6.4 22.5 0.00 0.00 0.00 58 1008.6
20260505222054 22 296 9.7 22.5 0.00 0.00 0.00 58 1008.3
20260505221551 22 304 4.8 22.5 0.00 0.00 0.00 58 1008.2
20260505221047 22 48 1.6 16.1 0.00 0.00 0.00 58 1008.1
20260505220545 22 276 16.1 24.1 0.00 0.00 0.00 57 1008.2
20260505220043 23 243 12.9 20.9 0.00 0.00 0.00 56 1008.3
20260505215541 22 297 4.8 14.5 0.00 0.00 0.00 56 1008.5
20260505215038 23 260 8.0 20.9 0.00 0.00 0.00 55 1008.7
20260505214536 23 269 3.2 16.1 0.00 0.00 0.00 56 1008.4
20260505214033 23 304 6.4 12.9 0.00 0.00 0.00 55 1008.6
20260505213531 23 271 25.7 25.7 0.00 0.00 0.00 54 1008.5
20260505213026 23 11 3.2 24.1 0.00 0.00 0.00 55 1008.4
20260505212523 24 341 3.2 14.5 0.00 0.00 0.00 53 1008.4
20260505212020 24 311 6.4 27.4 0.00 0.00 0.00 53 1008.3
20260505211518 24 268 8.0 17.7 0.00 0.00 0.00 52 1008.2
20260505211014 24 324 6.4 12.9 0.00 0.00 0.00 53 1008.2
20260505210511 25 278 12.9 17.7 0.00 0.00 0.00 51 1008.5
20260505210008 25 272 6.4 17.7 0.00 0.00 0.00 51 1008.2
20260505205506 25 354 11.3 14.5 0.00 0.00 0.00 50 1008.3
20260505205003 25 298 6.4 19.3 0.00 0.00 0.00 50 1008.4
20260505204501 25 233 6.4 20.9 0.00 0.00 0.00 51 1008.1
20260505203957 25 302 8.0 24.1 0.00 0.00 0.00 49 1008.1
20260505203454 25 271 4.8 22.5 0.00 0.00 0.00 50 1008.2
20260505202950 25 224 4.8 27.4 0.00 0.00 0.00 48 1008.1
20260505202447 25 287 6.4 19.3 0.00 0.00 0.00 47 1008.1
20260505201943 25 341 11.3 30.6 0.00 0.00 0.00 46 1008.1
20260505201440 25 327 25.7 29.0 0.00 0.00 0.00 46 1008.1
20260505200938 26 283 6.4 17.7 0.00 0.00 0.00 47 1008.1
20260505200436 26 320 11.3 27.4 0.00 0.00 0.00 47 1008.4
20260505195931 26 321 16.1 32.2 0.00 0.00 0.00 46 1008.2
20260505195428 26 281 4.8 22.5 0.00 0.00 0.00 48 1008.2
20260505194926 26 315 11.3 25.7 0.00 0.00 0.00 47 1008.3
20260505194423 26 243 6.4 19.3 0.00 0.00 0.00 50 1008.1
20260505193923 26 253 14.5 46.7 0.00 0.00 0.00 46 1008.5